Location: Limerick
(52.6800°N, 8.6400°W)
Time: 06:21:43
(UTC+00:00)

Sapphire - Visible Passes

Search period start: 26 November 2014 00:00
Search period end: 06 December 2014 00:00
Orbit: 785 x 798 km, 67.1° (Epoch: 24 November)

Date Brightness Start Highest point End Pass type
(mag) Time Alt. Az. Time Alt. Az. Time Alt. Az.
26 Nov ? 03:55:03 21° ESE 03:55:03 21° ESE 03:56:58 10° ESE visible
26 Nov ? 05:35:51 44° SW 05:35:51 44° SW 05:40:23 10° S visible
27 Nov ? 03:26:12 10° ESE 03:26:12 10° ESE 03:26:12 10° ESE visible
27 Nov ? 05:07:00 34° S 05:07:00 34° S 05:10:09 10° SSE visible
27 Nov ? 06:47:48 11° WSW 06:47:48 11° WSW 06:48:42 10° WSW visible
28 Nov ? 04:38:14 20° SSE 04:38:14 20° SSE 04:39:49 10° SSE visible
28 Nov ? 06:19:02 12° SW 06:19:02 12° SW 06:19:57 10° SW visible
28 Nov ? 19:17:05 10° S 19:17:57 14° SSE 19:17:57 14° SSE visible
29 Nov ? 05:50:21 11° SSW 05:50:21 11° SSW 05:50:31 10° SSW visible
29 Nov ? 18:47:14 10° SSE 18:49:09 18° SE 18:49:09 18° SE visible
29 Nov ? 20:28:52 10° SW 20:29:57 16° SW 20:29:57 16° SW visible
30 Nov ? 18:17:37 10° SSE 18:20:16 17° ESE 18:20:16 17° ESE visible
30 Nov ? 19:58:22 10° SW 20:01:04 31° SSW 20:01:04 31° SSW visible
01 Dec ? 17:48:22 10° SE 17:50:54 13° ESE 17:51:18 13° E visible
01 Dec ? 19:27:58 10° SSW 19:32:05 50° S 19:32:05 50° S visible
01 Dec ? 21:12:12 10° W 21:12:52 13° W 21:12:52 13° W visible
02 Dec ? 18:57:40 10° SSW 19:02:55 53° ESE 19:03:02 53° ESE visible
02 Dec ? 20:41:24 10° WSW 20:43:48 24° W 20:43:48 24° W visible
03 Dec ? 18:27:29 10° S 18:32:32 41° ESE 18:33:53 35° E visible
03 Dec ? 20:10:39 10° WSW 20:14:39 41° W 20:14:39 41° W visible
04 Dec ? 17:57:25 10° S 18:02:10 32° ESE 18:04:39 22° ENE visible
04 Dec ? 19:39:59 10° SW 19:45:21 60° NW 19:45:25 60° NW visible
04 Dec ? 21:25:33 10° WNW 21:26:11 13° WNW 21:26:11 13° WNW visible
05 Dec ? 17:27:31 10° SSE 17:31:51 25° ESE 17:35:21 14° ENE visible
05 Dec ? 19:09:23 10° SW 19:14:48 74° NW 19:16:07 52° NNE visible
05 Dec ? 20:54:36 10° W 20:56:53 20° WNW 20:56:53 20° WNW visible
